TimeCDT,TemperatureF,Dew PointF,Humidity,Sea Level PressureIn,VisibilityMPH,Wind Direction,Wind SpeedMPH,Gust SpeedMPH,PrecipitationIn,Events,Conditions,WindDirDegrees,DateUTC
12:15 AM,64.4,30.7,28,29.66,10.0,South,16.1,27.6,N/A,,Clear,180,2014-04-12 05:15:00
12:35 AM,64.4,31.1,29,29.66,10.0,South,16.1,24.2,N/A,,Clear,180,2014-04-12 05:35:00
12:55 AM,64.9,31.3,28,29.65,10.0,South,15.0,24.2,N/A,,Scattered Clouds,180,2014-04-12 05:55:00
1:15 AM,64.4,31.8,30,29.65,10.0,South,17.3,23.0,N/A,,Clear,180,2014-04-12 06:15:00
1:35 AM,62.8,32.2,32,29.64,10.0,South,17.3,24.2,N/A,,Clear,180,2014-04-12 06:35:00
1:44 AM,62.6,33.8,34,29.63,10.0,South,15.0,19.6,N/A,,Clear,180,2014-04-12 06:44:00
1:55 AM,63.1,33.8,33,29.62,10.0,South,17.3,24.2,N/A,,Clear,180,2014-04-12 06:55:00
2:15 AM,63.7,36.3,36,29.62,10.0,South,19.6,24.2,N/A,,Clear,190,2014-04-12 07:15:00
2:35 AM,63.9,37.4,38,29.61,10.0,South,20.7,25.3,N/A,,Clear,190,2014-04-12 07:35:00
2:55 AM,63.9,38.3,39,29.60,10.0,SSW,18.4,24.2,N/A,,Clear,200,2014-04-12 07:55:00
3:15 AM,64.4,39.2,40,29.60,10.0,SSW,17.3,26.5,N/A,,Clear,200,2014-04-12 08:15:00
3:35 AM,63.7,40.1,42,29.60,10.0,SW,17.3,27.6,N/A,,Clear,220,2014-04-12 08:35:00
3:55 AM,61.9,40.1,45,29.62,10.0,SW,12.7,-,N/A,,Clear,230,2014-04-12 08:55:00
4:15 AM,61.0,40.5,47,29.62,10.0,SW,11.5,-,N/A,,Clear,230,2014-04-12 09:15:00
4:35 AM,59.0,41.0,51,29.61,10.0,SW,9.2,-,N/A,,Clear,220,2014-04-12 09:35:00
4:55 AM,57.2,41.0,55,29.61,10.0,SW,8.1,-,N/A,,Clear,220,2014-04-12 09:55:00
5:15 AM,55.6,41.0,58,29.61,10.0,SSW,8.1,-,N/A,,Clear,210,2014-04-12 10:15:00
5:35 AM,54.5,40.5,59,29.60,10.0,SW,8.1,-,N/A,,Clear,220,2014-04-12 10:35:00
5:55 AM,53.6,39.7,59,29.61,10.0,SW,9.2,-,N/A,,Clear,230,2014-04-12 10:55:00
6:15 AM,56.5,38.5,51,29.61,10.0,WSW,10.4,-,N/A,,Clear,240,2014-04-12 11:15:00
6:35 AM,53.8,37.8,55,29.61,10.0,WSW,8.1,-,N/A,,Clear,240,2014-04-12 11:35:00
6:55 AM,53.1,37.8,56,29.62,10.0,WSW,5.8,-,N/A,,Clear,240,2014-04-12 11:55:00
7:15 AM,50.5,37.8,62,29.62,10.0,South,4.6,-,N/A,,Clear,180,2014-04-12 12:15:00
7:35 AM,51.1,37.8,60,29.62,10.0,West,6.9,-,N/A,,Clear,270,2014-04-12 12:35:00
7:55 AM,51.6,39.0,62,29.63,10.0,Calm,Calm,-,N/A,,Clear,0,2014-04-12 12:55:00
8:15 AM,53.4,39.6,59,29.64,10.0,West,3.5,-,N/A,,Clear,270,2014-04-12 13:15:00
8:35 AM,56.3,38.3,51,29.64,10.0,NW,12.7,-,N/A,,Clear,310,2014-04-12 13:35:00
8:55 AM,57.0,37.8,49,29.64,10.0,NW,9.2,-,N/A,,Clear,320,2014-04-12 13:55:00
9:15 AM,57.4,37.2,47,29.65,10.0,NW,11.5,-,N/A,,Clear,320,2014-04-12 14:15:00
9:35 AM,59.2,36.9,43,29.64,10.0,NW,13.8,-,N/A,,Clear,320,2014-04-12 14:35:00
9:55 AM,60.1,36.1,41,29.65,10.0,NNW,10.4,-,N/A,,Clear,330,2014-04-12 14:55:00
10:15 AM,60.4,34.7,38,29.66,10.0,North,11.5,-,N/A,,Clear,350,2014-04-12 15:15:00
10:35 AM,61.0,34.9,38,29.66,10.0,NNW,9.2,-,N/A,,Clear,340,2014-04-12 15:35:00
10:55 AM,62.6,34.2,35,29.67,10.0,NNW,11.5,19.6,N/A,,Clear,340,2014-04-12 15:55:00
11:15 AM,64.0,33.6,32,29.67,10.0,North,11.5,-,N/A,,Clear,350,2014-04-12 16:15:00
11:35 AM,65.1,33.1,30,29.68,10.0,North,13.8,20.7,N/A,,Clear,360,2014-04-12 16:35:00
11:55 AM,65.7,33.4,30,29.68,10.0,North,13.8,20.7,N/A,,Clear,360,2014-04-12 16:55:00
12:15 PM,68.2,32.4,26,29.67,10.0,North,13.8,-,N/A,,Clear,360,2014-04-12 17:15:00
12:35 PM,69.4,32.7,26,29.67,10.0,North,15.0,19.6,N/A,,Clear,360,2014-04-12 17:35:00
12:55 PM,69.4,33.1,26,29.67,10.0,North,12.7,20.7,N/A,,Clear,10,2014-04-12 17:55:00
1:15 PM,69.4,34.0,27,29.66,10.0,North,12.7,19.6,N/A,,Clear,360,2014-04-12 18:15:00
1:35 PM,71.6,35.6,27,29.66,10.0,North,16.1,20.7,N/A,,Clear,360,2014-04-12 18:35:00
1:55 PM,70.7,35.1,27,29.65,10.0,North,16.1,19.6,N/A,,Clear,10,2014-04-12 18:55:00
2:15 PM,71.1,35.8,27,29.64,10.0,North,15.0,24.2,N/A,,Clear,350,2014-04-12 19:15:00
2:35 PM,72.7,35.1,25,29.64,10.0,North,17.3,27.6,N/A,,Clear,10,2014-04-12 19:35:00
2:55 PM,73.6,35.2,25,29.64,10.0,NNE,15.0,24.2,N/A,,Clear,20,2014-04-12 19:55:00
3:15 PM,73.9,33.1,22,29.63,10.0,North,21.9,27.6,N/A,,Clear,10,2014-04-12 20:15:00
3:35 PM,74.5,30.9,20,29.63,10.0,North,20.7,26.5,N/A,,Clear,10,2014-04-12 20:35:00
3:55 PM,75.0,29.5,19,29.63,10.0,North,19.6,24.2,N/A,,Clear,10,2014-04-12 20:55:00
4:15 PM,74.5,29.1,19,29.63,10.0,North,18.4,28.8,N/A,,Clear,10,2014-04-12 21:15:00
4:35 PM,73.2,28.0,19,29.63,10.0,North,20.7,27.6,N/A,,Clear,360,2014-04-12 21:35:00
4:55 PM,73.4,27.9,18,29.63,10.0,NNE,18.4,25.3,N/A,,Clear,20,2014-04-12 21:55:00
5:15 PM,73.9,24.6,16,29.64,10.0,North,20.7,28.8,N/A,,Clear,10,2014-04-12 22:15:00
5:35 PM,72.3,25.9,18,29.64,10.0,NNE,19.6,26.5,N/A,,Clear,20,2014-04-12 22:35:00
5:55 PM,71.6,27.1,19,29.64,10.0,NNE,17.3,23.0,N/A,,Clear,20,2014-04-12 22:55:00
6:15 PM,71.1,27.0,19,29.65,10.0,NNE,19.6,-,N/A,,Clear,20,2014-04-12 23:15:00
6:35 PM,69.1,27.0,21,29.65,10.0,North,18.4,21.9,N/A,,Clear,10,2014-04-12 23:35:00
6:55 PM,69.4,27.9,21,29.66,10.0,North,17.3,20.7,N/A,,Clear,10,2014-04-12 23:55:00
7:15 PM,68.9,28.4,22,29.67,10.0,North,15.0,19.6,N/A,,Clear,10,2014-04-13 00:15:00
7:35 PM,67.6,28.9,24,29.67,10.0,North,13.8,19.6,N/A,,Clear,10,2014-04-13 00:35:00
7:55 PM,65.3,29.7,26,29.69,10.0,North,12.7,-,N/A,,Clear,10,2014-04-13 00:55:00
8:15 PM,63.1,30.2,29,29.69,10.0,North,10.4,-,N/A,,Clear,10,2014-04-13 01:15:00
8:35 PM,60.4,32.0,34,29.70,10.0,North,9.2,-,N/A,,Clear,360,2014-04-13 01:35:00
8:55 PM,59.4,32.0,36,29.70,10.0,North,11.5,-,N/A,,Clear,360,2014-04-13 01:55:00
9:15 PM,57.9,32.2,38,29.71,10.0,North,11.5,-,N/A,,Clear,360,2014-04-13 02:15:00
9:35 PM,57.0,33.4,41,29.71,10.0,North,11.5,-,N/A,,Clear,360,2014-04-13 02:35:00
9:55 PM,56.5,33.6,42,29.71,10.0,North,11.5,-,N/A,,Clear,350,2014-04-13 02:55:00
10:15 PM,55.9,32.7,41,29.71,10.0,North,13.8,18.4,N/A,,Clear,360,2014-04-13 03:15:00
10:35 PM,55.4,31.8,41,29.71,10.0,North,15.0,19.6,N/A,,Clear,360,2014-04-13 03:35:00
10:55 PM,54.9,31.1,40,29.71,10.0,North,15.0,-,N/A,,Clear,350,2014-04-13 03:55:00
11:15 PM,54.5,31.1,41,29.72,10.0,North,17.3,24.2,N/A,,Clear,360,2014-04-13 04:15:00
11:35 PM,53.6,32.0,44,29.73,10.0,North,18.4,24.2,N/A,,Clear,360,2014-04-13 04:35:00
11:55 PM,52.2,33.8,50,29.74,10.0,North,21.9,27.6,N/A,,Clear,360,2014-04-13 04:55:00